Wind_Speed
14 14 14 14 14 13 12 11 11 11 11 10 10 10 10 10 10 11 11 12 13 13 15 16 17 17 18 19 19 21 20 20 22 15 8 10 11 12 13 12 10 6 2 3 8 10 10 7 5 4 2 2 3 2 4 5 3 2 2 2 0 1 2 3 3 2 2 3 5 9 8 2 7 11 10 11 7 10 11 13 16 17 18 16 13 16 30 37
14 14 15 15 14 14 13 12 12 11 11 11 11 10 11 11 11 11 12 13 13 14 15 16 17 17 18 18 19 21 20 22 20 10 7 10 11 12 12 9 7 3 2 6 10 10 8 6 5 4 3 2 2 2 4 5 5 3 2 1 2 4 3 4 4 3 3 4 6 11 11 5 7 8 8 7 6 6 7 10 15 16 16 15 12 18 33 39
14 15 15 15 15 14 14 13 12 11 11 11 11 11 11 11 12 12 12 13 14 14 15 16 16 17 17 18 20 19 21 22 13 7 8 10 11 12 11 7 4 3 5 9 11 9 7 5 4 4 4 2 0 2 2 4 6 3 2 1 4 5 3 6 7 7 9 8 6 9 9 6 7 8 6 4 7 7 5 7 9 13 12 12 14 24 36 39
15 15 15 15 15 15 14 13 13 12 11 11 11 12 11 12 12 12 13 14 15 15 15 16 16 17 17 19 19 18 21 17 6 8 9 9 11 11 8 4 3 6 6 7 8 6 5 3 2 3 4 2 0 3 3 4 6 3 4 3 4 4 3 7 9 11 13 10 7 8 8 7 8 7 5 2 5 6 5 7 10 12 12 13 20 27 32 36
15 15 15 15 15 15 14 13 13 12 12 11 11 11 12 12 12 13 13 14 15 15 16 16 16 17 18 18 18 18 17 7 4 10 8 8 11 8 4 4 7 8 8 7 5 5 4 2 1 3 2 1 0 1 3 5 6 3 3 6 6 4 3 8 11 12 13 9 7 7 6 8 7 6 6 4 3 6 6 9 11 14 11 8 18 28 32 33
15 15 16 16 16 15 14 13 13 12 12 12 11 11 11 12 13 13 13 14 15 15 16 16 17 17 18 18 17 16 11 3 7 8 4 8 8 5 5 8 11 10 9 8 6 5 2 0 3 2 1 1 1 2 2 4 6 3 3 5 9 8 5 7 11 12 12 9 5 5 6 8 7 5 4 6 8 10 12 14 13 15 13 9 8 21 36 35
16 16 16 16 16 15 14 13 13 13 13 12 12 11 11 12 13 14 14 14 15 15 16 16 17 18 17 17 15 15 11 5 5 3 2 7 6 5 6 8 8 8 8 6 4 3 1 2 3 2 1 2 1 3 2 2 4 4 3 4 9 11 9 10 11 12 11 9 7 7 7 7 5 3 2 5 9 11 13 15 14 13 15 15 13 14 37 43
16 17 17 17 16 15 14 13 13 13 13 12 12 11 11 12 12 14 14 14 15 16 16 16 17 18 17 15 13 14 11 5 2 1 3 6 5 5 6 7 6 5 5 4 2 2 2 2 2 1 0 1 2 2 2 3 2 3 3 4 4 7 10 13 13 13 11 9 9 8 8 8 4 3 3 6 10 12 12 13 12 9 8 8 7 13 34 41
16 17 17 17 17 15 14 13 13 13 13 13 13 12 11 11 12 13 14 14 15 16 16 16 17 18 17 13 11 10 7 4 1 2 3 6 6 4 5 5 5 4 3 2 1 1 2 2 2 2 2 2 2 2 1 2 2 3 4 4 3 6 11 13 11 10 9 8 7 5 8 7 3 4 3 3 12 14 13 10 10 10 7 8 7 15 34 38
16 16 17 17 17 15 13 13 12 13 13 13 13 12 11 11 12 13 13 13 15 16 17 17 17 17 15 10 6 4 5 5 1 3 4 5 6 4 4 4 4 2 2 1 0 2 3 4 6 4 3 2 2 2 0 1 3 4 4 5 6 9 12 9 8 9 7 6 5 3 7 5 2 3 3 4 13 14 13 10 9 13 9 9 10 12 36 43
16 16 16 16 16 15 13 12 12 13 13 13 13 12 11 11 12 13 13 13 14 16 17 17 17 15 12 9 4 2 5 4 2 4 4 4 5 5 4 5 3 1 0 1 2 4 5 6 7 3 2 2 2 2 2 3 6 7 5 5 7 9 10 9 10 10 5 4 4 2 5 5 1 0 3 8 13 13 13 11 9 12 10 9 6 11 28 38
16 16 16 16 16 15 13 12 12 13 13 13 13 12 12 11 12 12 12 12 13 16 18 18 14 11 11 12 9 5 4 3 3 4 5 5 4 5 4 4 2 1 2 3 3 5 6 7 6 5 4 3 2 2 3 5 6 5 4 4 7 8 7 7 5 5 5 3 2 1 3 5 2 4 7 9 11 11 10 8 9 10 9 10 6 16 18 25
16 17 17 17 16 15 13 13 13 13 13 13 13 12 11 11 11 12 12 11 13 16 17 15 10 10 11 10 8 5 5 5 5 7 8 7 5 4 3 3 3 3 4 4 4 5 7 9 8 9 9 5 2 2 4 5 4 3 3 2 4 7 5 4 2 3 3 1 1 3 1 4 5 7 8 9 10 9 9 9 12 11 8 9 11 16 12 24
17 17 18 18 17 15 14 13 13 13 13 13 13 12 11 11 11 11 11 11 12 15 14 10 8 11 11 9 8 8 7 7 7 9 10 9 8 5 2 1 2 3 4 5 5 5 7 10 7 9 9 6 4 4 4 5 3 2 2 2 3 3 4 5 3 2 1 1 5 6 1 4 6 7 9 9 9 7 7 9 11 11 10 11 15 14 3 24
17 18 18 19 18 16 14 14 13 13 13 12 11 10 10 10 10 10 11 11 13 13 10 8 10 12 12 11 8 7 5 5 5 6 10 11 8 6 4 1 1 2 4 6 7 7 8 7 4 4 5 5 4 3 4 4 3 2 2 3 3 1 4 8 4 2 2 2 7 6 1 4 5 6 9 7 7 7 5 7 7 9 10 12 16 15 7 20
17 18 19 19 19 17 16 14 13 12 11 10 10 9 9 9 10 10 11 12 12 9 7 10 12 10 9 7 4 4 5 4 3 4 10 12 11 7 5 4 2 1 2 6 6 4 4 3 2 2 2 1 0 3 3 4 3 3 3 2 3 2 3 5 5 2 1 1 6 5 1 3 5 6 9 6 7 8 5 6 7 9 12 14 14 13 13 18
17 18 19 20 20 18 16 14 13 11 9 9 8 8 8 9 9 10 11 12 9 8 10 12 11 8 6 5 5 6 3 1 3 5 8 11 13 10 6 6 5 3 2 3 4 2 2 2 2 2 1 2 1 4 3 3 3 4 3 1 2 3 3 4 6 3 2 3 4 3 1 2 5 6 7 6 7 7 7 9 11 12 12 10 7 5 10 14
17 18 19 19 20 19 17 14 13 10 9 8 7 7 7 8 10 12 11 9 7 8 11 8 4 4 4 8 6 3 1 4 6 6 7 10 14 12 8 7 5 5 4 3 5 5 3 3 1 0 2 3 2 4 2 1 1 2 2 2 3 3 3 4 5 1 2 4 4 2 1 2 4 5 6 6 6 4 7 11 12 11 8 5 4 4 7 11
17 18 19 19 20 20 17 14 12 10 8 6 6 6 7 9 11 10 7 8 9 6 6 5 4 3 5 9 10 7 8 9 7 6 6 10 14 14 11 7 5 6 5 3 5 5 3 3 3 1 2 3 2 4 5 5 4 1 1 2 3 4 5 5 6 3 2 4 5 2 0 2 4 4 5 6 6 3 8 10 10 11 7 7 9 9 11 12
17 18 18 19 19 19 16 13 11 8 6 6 6 5 6 9 8 5 9 15 14 8 10 12 13 14 12 10 10 8 8 6 5 6 5 9 13 13 10 7 5 6 3 1 3 3 2 2 1 4 5 5 5 6 5 4 4 1 0 1 3 4 5 5 6 3 3 4 2 1 2 3 4 4 4 6 7 3 6 7 7 8 6 7 10 11 13 14
17 17 18 18 18 19 16 12 10 6 5 6 6 5 5 7 4 5 14 17 13 12 14 13 13 17 14 10 10 6 4 2 4 4 4 10 13 9 6 4 0 2 3 1 2 2 2 2 3 6 7 7 6 5 4 2 3 1 1 1 3 3 3 6 5 3 3 3 0 1 3 4 3 4 4 5 6 4 2 3 4 7 7 7 10 14 14 14
16 17 17 18 17 18 16 13 9 3 3 5 6 7 7 7 5 8 10 11 16 19 15 11 11 15 13 12 12 10 7 5 4 6 7 12 14 9 4 2 2 2 2 3 3 3 3 3 5 5 4 3 3 4 5 3 3 2 1 1 3 1 1 5 6 6 3 2 1 3 4 3 3 4 3 3 4 4 4 2 2 5 8 7 11 15 15 14
16 17 17 17 17 17 15 13 7 1 0 2 4 6 6 6 7 9 6 7 15 17 11 8 9 12 12 9 8 10 12 9 7 9 12 15 15 10 5 4 1 2 1 2 3 2 3 4 5 2 2 3 2 3 6 4 2 3 2 2 2 2 2 2 4 6 5 2 2 2 3 2 3 3 3 3 3 3 5 2 2 4 9 8 11 15 15 14
15 17 17 16 17 17 16 13 7 4 3 1 1 3 3 5 7 10 8 4 7 9 7 6 8 10 9 6 4 7 11 9 7 9 14 18 15 9 5 3 2 1 2 4 4 3 6 7 3 3 2 2 1 1 4 3 2 3 5 4 3 4 4 3 2 2 3 3 3 3 3 3 2 2 2 2 4 2 3 3 3 4 9 9 11 16 14 12
14 16 17 17 17 16 17 13 4 4 4 3 3 2 2 5 8 10 7 2 3 6 5 5 5 6 6 4 3 5 6 6 6 8 14 21 17 8 3 3 3 1 3 3 2 3 7 6 2 1 1 1 2 2 3 4 2 2 3 6 5 5 5 3 2 2 3 3 2 1 3 2 2 2 2 2 3 2 1 2 3 7 11 10 11 16 14 12
14 16 17 17 16 15 16 11 3 4 6 6 6 6 5 6 9 9 5 3 2 5 4 2 2 3 4 4 4 4 2 2 3 6 13 19 16 8 2 2 2 2 3 4 1 2 4 3 2 2 1 1 1 3 3 4 2 3 3 2 4 5 5 4 4 3 2 1 2 2 3 1 3 2 1 2 1 2 3 2 5 9 12 11 11 14 15 15
14 15 17 18 16 15 14 10 7 8 7 6 6 7 7 7 9 9 4 4 3 4 3 2 1 2 5 5 5 3 1 1 1 5 14 18 15 8 2 1 1 3 3 3 2 2 2 2 2 0 2 3 2 2 3 4 4 2 4 3 4 5 4 4 4 3 2 2 2 3 3 3 2 3 2 1 1 1 3 4 4 6 8 9 11 11 13 17
14 16 17 17 17 15 13 10 9 8 5 4 4 5 6 6 7 5 3 4 3 3 2 3 3 5 7 3 6 2 1 1 2 5 13 15 14 7 3 4 4 4 4 4 2 4 2 2 3 2 1 2 2 2 3 5 4 3 4 3 4 4 4 3 3 2 1 3 3 4 4 3 1 3 4 2 1 1 1 2 3 5 7 7 7 8 9 12
15 16 17 17 16 15 12 9 9 6 3 2 1 2 3 3 2 2 4 2 3 2 1 4 6 7 7 1 5 3 1 1 2 5 11 11 14 9 3 5 4 3 3 4 2 5 2 4 6 5 2 2 3 2 3 4 2 2 1 3 4 3 3 3 3 3 3 4 2 5 4 3 2 3 3 3 2 2 3 3 2 5 8 8 8 8 8 8
15 16 16 16 16 13 10 9 7 4 2 1 1 1 1 1 2 4 2 1 1 2 2 4 5 7 7 3 0 4 3 3 5 8 8 6 12 12 7 7 2 3 0 1 2 5 3 2 3 4 3 3 2 2 2 3 2 2 2 4 4 3 3 3 2 3 4 2 2 5 4 4 1 3 1 1 1 3 4 4 2 2 4 8 10 9 9 8
15 16 16 16 14 11 9 9 7 4 2 2 2 1 3 2 3 5 1 2 1 3 3 3 4 5 5 3 3 5 3 2 5 8 4 2 4 6 4 5 1 2 3 4 3 4 2 1 1 3 4 4 4 3 2 3 3 3 2 3 3 3 3 3 3 3 4 1 2 4 3 3 3 2 2 1 3 3 3 4 4 2 1 6 10 9 8 6
14 15 15 13 10 8 8 8 6 3 1 0 1 3 4 2 2 1 2 3 2 2 2 2 3 4 4 3 3 4 4 3 2 4 3 2 1 1 2 2 1 3 4 3 3 3 0 2 3 3 2 4 4 3 3 4 4 3 3 3 2 2 2 2 3 3 1 1 2 2 2 3 1 3 3 4 4 3 4 5 6 6 4 2 7 9 8 7
14 14 12 9 7 8 9 8 5 3 1 1 2 2 4 4 0 2 2 2 1 2 1 1 3 4 3 4 4 4 3 3 2 2 2 1 1 1 3 3 3 2 2 2 3 3 2 4 4 4 1 2 3 3 1 2 1 2 1 1 2 1 2 1 1 1 1 1 3 3 2 2 1 1 3 6 4 4 5 5 6 5 4 1 5 9 9 8
13 12 8 4 6 9 10 9 5 3 2 1 2 3 4 2 2 1 1 2 3 2 2 2 3 5 5 3 2 4 2 2 4 4 2 2 3 3 4 3 0 2 1 1 1 1 2 4 3 1 0 1 1 3 4 3 2 1 2 2 2 1 2 0 1 2 0 2 3 4 1 1 2 1 4 5 3 2 4 7 6 4 4 5 8 9 9 7
12 9 4 3 6 8 9 10 6 3 2 1 3 5 3 2 2 1 2 3 2 3 3 2 3 5 5 2 3 3 2 2 4 4 3 3 2 2 2 3 2 2 2 2 1 1 2 3 5 2 1 1 1 2 4 4 2 1 1 2 1 1 2 2 1 2 2 1 2 3 1 1 1 1 3 3 3 5 8 10 10 9 8 10 11 9 7 7
11 6 0 3 5 7 9 10 6 4 3 0 4 4 2 3 2 3 3 1 1 3 4 4 4 4 4 4 3 4 1 1 3 4 2 2 1 2 2 3 3 2 2 0 1 0 2 3 5 3 1 0 1 2 2 2 0 0 1 0 1 1 3 3 1 2 2 2 2 2 1 2 1 0 3 5 5 6 8 9 9 9 9 11 12 9 7 6
9 3 3 3 5 7 8 9 7 4 3 2 5 1 3 3 3 5 2 1 1 1 4 2 1 1 2 3 3 5 3 2 3 3 1 2 1 2 3 4 2 1 1 3 2 1 1 3 5 1 2 3 2 6 4 2 2 2 0 2 2 2 3 3 2 2 3 2 1 2 1 2 2 1 3 6 7 6 7 7 8 8 8 10 10 9 7 6
9 2 4 5 6 7 8 9 8 5 3 3 2 2 2 2 4 5 3 2 1 2 4 2 2 1 1 1 2 5 3 3 3 2 1 2 1 1 2 3 2 3 3 2 1 1 2 2 6 0 0 3 3 6 4 3 2 3 3 2 2 2 1 1 1 1 2 2 1 2 2 1 2 2 4 6 7 6 6 6 6 7 8 8 8 8 8 7
7 1 3 4 6 7 9 9 8 5 2 4 1 2 1 3 5 6 8 4 1 2 2 3 1 1 1 2 2 3 2 1 1 2 1 0 1 1 1 1 3 7 6 1 2 0 2 1 4 3 1 1 2 3 1 3 3 2 2 1 1 2 2 1 1 1 2 1 1 1 2 2 2 3 5 6 6 5 5 5 5 6 7 8 8 9 9 8
5 1 3 3 5 7 8 8 6 4 3 2 2 2 1 2 6 9 9 3 4 2 1 3 2 1 1 2 1 1 1 1 1 1 1 0 1 4 2 1 2 9 8 2 1 0 2 2 2 5 3 1 1 1 4 3 1 2 1 1 1 2 1 1 2 1 3 2 1 1 1 2 2 3 5 6 5 4 5 4 5 6 7 8 8 9 9 8
3 1 2 1 4 6 7 7 4 3 2 1 2 2 2 2 4 8 9 1 4 2 2 4 3 2 2 1 1 2 1 1 1 1 1 1 0 1 2 1 2 6 6 4 2 0 1 1 1 3 2 1 4 5 5 6 4 4 2 2 2 3 2 3 2 2 2 3 2 2 1 2 2 2 3 4 4 4 6 5 6 6 8 9 9 9 9 8
1 1 1 1 2 5 7 5 2 2 2 1 3 4 5 4 3 6 8 5 3 3 4 4 2 2 2 1 1 1 0 0 1 1 0 2 2 3 4 8 9 5 1 1 3 2 3 3 1 2 2 4 5 3 1 4 4 4 2 2 3 3 3 4 2 1 1 2 0 2 2 1 2 3 2 2 4 7 9 9 8 9 9 9 10 10 10 10
2 1 1 1 1 4 6 3 3 3 0 4 6 5 6 4 2 3 6 6 4 3 3 2 1 1 1 1 1 0 1 0 1 0 1 2 3 5 7 11 12 4 2 1 3 1 2 3 2 2 4 4 4 4 3 3 4 3 1 1 2 2 2 4 4 3 2 1 1 3 1 3 3 3 2 3 6 10 12 11 10 11 11 12 13 12 12 12
2 3 3 3 3 4 5 2 1 3 4 5 6 4 4 2 1 3 3 3 3 1 2 2 1 0 1 1 2 1 1 1 1 2 1 1 3 7 9 13 11 3 1 1 2 1 1 2 2 2 4 5 6 5 5 5 3 1 2 2 1 2 4 4 2 3 3 1 2 3 1 4 3 2 2 3 6 9 11 13 13 13 14 15 15 14 13 13
1 2 4 4 3 3 3 3 2 1 3 4 4 4 4 2 2 4 2 2 4 2 2 1 1 1 1 1 2 1 1 1 0 2 1 1 4 6 10 15 11 4 3 2 2 1 1 2 2 2 1 1 1 2 3 4 3 1 3 4 2 3 6 4 2 3 2 2 2 3 3 3 2 2 2 3 7 8 10 14 15 14 16 16 15 15 16 16
1 1 1 2 2 2 2 2 3 2 1 1 2 3 2 1 3 5 2 3 5 3 2 1 1 1 3 3 2 2 2 1 1 1 1 2 3 4 11 14 8 8 11 9 6 3 3 2 2 5 5 4 4 4 4 3 3 4 5 6 4 1 3 5 4 1 3 4 1 2 4 4 4 5 4 3 7 8 8 11 14 15 16 16 16 17 18 18
1 1 0 1 1 1 2 2 4 3 1 2 1 2 1 2 3 3 2 2 4 4 2 2 2 2 0 1 2 1 3 2 2 1 2 3 3 5 11 10 4 10 16 12 9 4 4 3 1 5 4 4 6 5 5 2 2 4 6 6 4 3 3 5 3 2 5 5 1 4 6 7 6 6 6 5 7 8 7 9 12 15 17 18 19 19 19 20
1 1 2 2 0 1 2 1 2 2 1 3 2 2 1 2 2 1 1 2 3 4 3 1 4 2 2 2 3 0 3 4 4 2 1 3 2 4 9 6 2 10 14 10 8 5 5 1 1 2 1 2 2 2 2 2 2 2 4 5 5 5 2 3 2 2 4 3 3 7 8 6 5 5 5 5 7 9 8 11 15 17 18 19 20 20 20 20
2 2 2 2 2 3 3 3 3 2 1 3 2 1 1 1 2 2 1 2 3 4 3 1 4 5 3 2 4 1 1 1 3 4 2 2 3 2 5 4 3 8 11 7 5 3 3 1 1 0 2 4 4 3 4 5 3 3 4 5 6 5 3 3 3 3 4 2 4 9 9 4 2 3 4 7 12 13 12 14 16 17 18 19 20 20 20 20
3 3 3 3 2 2 1 3 1 2 1 2 2 2 2 3 2 2 1 2 0 3 2 1 4 4 2 3 4 1 3 6 3 4 4 1 2 1 1 2 3 6 8 4 3 3 2 2 2 2 3 5 5 5 5 5 3 2 4 7 8 7 6 5 3 3 5 5 5 9 8 3 1 3 7 11 16 15 13 13 14 16 19 19 19 19 19 20
4 4 4 4 1 1 0 1 2 3 1 0 2 2 1 3 3 1 1 1 2 2 1 2 4 3 1 2 3 3 6 7 7 8 7 5 4 4 3 2 2 3 6 3 2 3 3 1 1 4 3 4 5 6 6 5 4 3 5 8 9 6 3 2 1 0 3 5 7 7 6 3 3 5 9 11 14 13 11 13 14 15 18 19 18 18 18 18
5 6 5 4 1 1 1 1 3 3 1 2 3 2 2 3 3 1 1 3 2 1 2 2 2 1 2 1 3 4 7 6 9 13 12 10 10 9 9 7 2 1 2 1 2 2 2 2 1 3 1 4 5 4 4 5 6 3 4 4 5 4 1 2 1 1 3 7 7 5 4 4 5 8 9 8 10 11 12 14 16 17 18 18 18 18 18 17
Wind_Direction
344 342 342 343 343 341 336 327 320 316 313 310 306 302 301 303 307 314 320 321 323 323 323 322 320 318 318 321 324 327 327 326 328 329 336 344 346 345 336 328 331 331 310 152 140 122 108 100 71 39 24 56 41 76 160 179 166 140 97 94 208 211 209 206 209 212 196 253 271 289 311 333 286 312 332 325 284 258 273 267 252 229 232 251 255 220 192 180
343 341 341 341 340 340 338 333 326 319 315 312 308 305 302 303 304 308 313 317 320 322 325 327 325 323 321 321 323 327 326 327 330 332 346 348 351 349 340 334 335 343 114 137 136 124 116 100 66 50 53 82 46 77 146 184 184 164 112 111 225 206 214 234 236 233 211 243 273 287 299 300 275 303 330 318 292 293 292 265 249 242 242 248 240 196 181 172
343 341 339 337 336 336 336 336 332 325 318 314 310 307 305 303 303 304 308 311 315 318 322 327 327 326 324 322 324 327 328 330 333 349 357 356 357 355 348 341 355 68 106 131 136 126 116 96 63 52 57 64 63 148 148 178 185 190 131 159 245 214 231 265 257 251 252 260 276 288 296 287 279 302 318 303 305 306 274 257 252 241 236 231 213 182 173 169
344 340 339 336 333 331 332 334 335 332 324 317 312 309 306 304 302 301 304 307 311 315 319 324 326 327 325 325 327 328 331 332 344 359 357 3 4 3 358 355 62 86 103 128 134 125 117 105 47 31 45 27 275 193 208 190 187 185 149 189 238 198 224 260 256 265 269 266 261 278 295 289 293 306 289 294 318 291 260 271 260 230 215 204 196 181 171 171
346 342 339 335 332 329 328 331 334 335 330 322 316 311 308 305 301 300 301 303 308 313 316 320 324 325 325 328 328 328 337 346 344 345 356 11 10 15 25 74 92 91 98 106 121 132 146 156 18 19 46 349 41 172 235 204 189 188 192 220 223 177 202 253 254 265 267 259 256 268 288 288 298 301 253 210 224 263 288 298 269 226 209 195 191 182 176 171
349 345 342 337 333 328 327 329 332 335 333 328 320 313 308 304 300 298 298 301 305 310 314 318 321 324 326 329 329 329 339 341 316 326 1 19 21 46 80 101 97 91 94 93 114 135 152 2 355 359 54 350 179 175 242 203 187 201 259 235 218 202 204 248 248 256 258 245 241 254 275 282 288 301 257 212 230 271 292 300 282 244 243 272 242 192 182 174
351 348 345 340 335 330 328 329 332 335 334 330 324 317 310 304 300 297 298 300 303 307 312 317 320 322 325 327 329 327 319 308 318 309 50 33 46 82 102 110 98 92 92 87 98 95 33 339 323 322 44 356 228 215 257 242 196 192 260 239 223 220 220 249 256 262 262 244 253 271 274 269 261 310 337 270 277 300 303 299 290 265 264 283 290 218 187 178
351 349 346 342 338 332 330 330 332 333 333 330 325 319 311 304 299 297 298 300 303 307 313 317 319 321 325 325 326 324 315 318 346 158 78 56 66 97 116 112 104 101 92 87 72 41 3 333 283 246 187 258 220 236 295 317 255 184 230 246 246 241 246 274 283 283 283 271 272 276 268 258 260 329 318 309 326 326 313 304 299 296 299 314 313 215 188 176
351 349 346 342 338 335 332 332 332 333 331 329 325 319 311 304 299 298 298 301 305 309 314 317 317 320 323 322 324 328 327 333 327 173 108 76 67 105 133 112 112 109 85 87 65 345 326 345 295 255 245 237 209 259 348 16 287 209 217 231 259 272 276 292 298 292 296 290 276 268 279 279 330 339 269 339 351 330 314 309 305 311 325 13 22 195 186 174
351 349 346 342 338 336 335 333 333 331 329 327 323 318 310 302 299 298 299 304 307 311 314 316 318 319 319 317 326 339 329 323 281 176 139 96 73 99 139 123 124 120 87 87 2 310 320 343 325 295 266 260 219 265 278 126 276 265 254 253 257 276 287 290 281 282 289 283 265 250 289 303 13 337 251 328 340 327 316 307 307 319 324 5 22 176 183 176
352 349 347 343 338 336 336 336 334 331 328 325 322 316 307 301 300 298 300 307 309 311 314 316 317 315 313 307 279 274 311 311 218 190 170 126 88 87 119 134 128 124 24 322 320 325 336 338 327 303 245 273 263 285 266 259 290 290 297 292 286 305 300 272 261 267 259 256 257 226 291 310 23 298 279 313 327 330 320 308 316 325 333 5 37 162 182 178
353 351 349 346 341 336 336 336 333 331 327 324 321 314 304 299 299 299 303 309 310 311 313 316 317 314 313 302 280 278 304 281 213 206 192 165 125 100 113 144 152 268 289 315 327 333 337 327 310 272 268 282 283 333 311 303 305 302 345 320 305 336 318 282 261 223 187 215 271 49 332 333 345 285 299 318 326 331 321 323 348 339 349 17 109 161 190 191
354 352 351 348 343 338 336 334 331 328 326 323 318 310 302 298 299 301 305 310 310 312 315 316 319 318 313 303 294 294 286 265 230 209 203 196 177 142 111 147 189 257 286 295 321 340 328 312 291 267 277 278 269 316 306 324 333 308 4 18 325 347 331 315 318 197 184 230 3 67 348 314 298 289 313 336 341 337 331 353 8 357 352 16 89 128 181 196
355 354 352 350 346 341 336 333 329 326 325 321 315 307 299 296 300 302 306 309 310 313 315 315 322 322 308 295 295 292 281 265 242 220 212 212 204 198 182 142 188 251 289 296 307 321 314 304 283 264 269 260 270 302 311 345 18 319 334 32 15 357 302 309 311 232 237 325 43 74 159 288 290 302 329 341 352 349 343 7 8 356 345 1 60 74 153 174
355 354 353 352 348 343 338 334 330 328 325 318 312 304 297 298 303 305 305 307 311 311 310 311 319 319 304 295 291 289 280 256 250 225 219 224 221 223 231 210 179 245 295 318 314 303 301 298 261 243 256 250 275 332 340 349 7 13 16 331 351 28 286 308 313 214 214 315 38 62 184 290 282 305 331 334 356 358 2 26 11 359 356 4 48 48 29 136
355 354 354 353 350 345 341 337 335 333 326 317 310 301 299 304 305 306 306 306 308 303 303 311 313 312 306 301 288 285 282 256 253 218 221 226 221 233 243 236 255 251 322 346 339 312 298 287 204 235 280 260 51 63 25 0 346 1 55 309 308 328 303 316 309 257 214 37 38 43 179 267 281 311 330 324 351 2 10 31 31 24 14 11 40 44 34 105
355 354 354 353 351 347 344 341 339 335 326 317 310 306 309 310 307 306 305 304 301 296 307 310 303 300 283 262 277 290 284 266 285 248 234 224 217 226 234 241 262 249 253 344 339 324 292 267 230 265 6 51 78 79 34 359 336 330 21 3 277 279 297 309 302 300 55 72 60 39 118 255 296 326 334 326 347 6 14 29 48 39 25 24 31 32 43 87
356 354 352 353 352 349 347 344 342 340 332 322 317 319 316 310 307 304 303 301 295 304 314 308 296 320 260 236 257 286 346 325 301 269 242 220 212 219 231 244 264 267 277 309 328 341 319 307 23 320 11 10 33 87 95 249 245 306 349 347 307 295 284 272 284 284 85 63 71 67 47 344 336 348 343 332 335 8 35 42 66 64 55 100 150 166 102 96
355 354 351 352 353 350 349 347 346 349 343 336 337 331 320 319 313 306 312 300 288 300 310 280 248 281 269 254 255 264 291 301 289 261 230 210 206 212 225 242 266 286 301 307 327 354 351 345 41 348 302 289 231 162 191 203 178 186 237 232 272 289 284 259 263 264 116 73 56 61 85 8 348 352 354 331 322 27 56 52 79 89 93 144 154 145 126 113
352 354 351 351 352 350 350 349 348 356 4 1 359 348 341 345 337 318 321 303 285 282 285 280 271 270 274 273 267 273 289 283 263 260 223 201 201 204 220 240 269 291 307 219 284 341 46 38 314 234 238 243 237 210 218 202 160 157 161 226 257 251 278 285 274 301 76 86 47 49 77 39 350 332 339 317 314 11 65 62 88 115 123 144 145 133 127 124
349 352 350 349 351 349 349 348 346 3 26 22 25 37 31 18 9 320 322 314 306 310 300 294 280 271 270 269 271 281 296 268 249 253 216 198 193 192 216 230 201 295 302 304 278 317 46 25 275 239 229 238 238 205 208 200 162 198 194 284 295 236 271 311 303 316 60 102 306 37 54 40 7 327 321 309 311 346 58 93 116 150 151 137 142 143 139 135
347 350 350 349 349 346 345 345 341 349 35 39 57 70 65 38 5 329 325 311 311 319 314 304 284 276 280 278 271 257 253 269 247 217 201 191 190 191 181 146 130 167 293 323 321 332 350 304 274 251 220 202 197 172 177 193 181 207 159 86 311 263 297 315 311 319 10 98 333 14 40 26 3 333 313 305 305 350 23 65 139 163 160 134 133 147 151 145
344 346 349 350 347 343 342 341 333 274 112 69 73 68 59 24 356 342 332 284 301 315 315 301 289 289 298 300 277 232 227 247 235 210 201 190 190 197 170 132 164 159 154 256 245 320 325 261 239 207 134 124 124 154 157 170 183 190 170 140 260 227 155 278 295 315 340 55 108 72 51 354 349 333 301 324 339 358 19 69 169 172 169 148 126 146 161 154
341 342 346 350 346 339 337 336 318 236 215 180 98 74 48 358 348 339 326 280 294 310 309 302 299 297 299 308 291 211 211 232 227 207 201 192 182 185 192 155 133 165 237 219 200 234 269 259 220 108 71 114 80 99 156 173 249 212 185 176 215 216 189 207 224 258 331 24 88 98 56 357 357 12 332 21 62 20 357 72 121 150 163 155 141 155 165 159
340 339 342 348 345 337 335 336 320 216 224 234 238 229 304 325 336 335 331 340 297 298 308 309 302 301 293 290 258 203 209 231 237 222 202 195 184 167 177 158 142 238 224 181 163 245 269 276 216 145 351 98 61 317 206 187 276 283 206 195 201 191 181 180 165 146 33 16 337 62 65 10 350 28 354 3 82 111 349 64 145 161 148 140 157 166 158 155
338 338 341 344 343 337 333 333 320 260 267 258 244 250 276 299 325 328 337 43 331 296 321 326 315 326 302 270 223 189 220 261 263 234 202 199 196 172 125 149 175 233 186 161 155 244 270 327 85 169 289 49 28 306 230 161 98 319 290 213 165 143 138 145 144 115 82 222 288 31 100 76 335 346 339 338 1 134 146 205 203 171 146 143 172 175 158 164
337 338 341 341 339 336 330 322 307 297 294 276 249 253 270 288 317 319 339 44 345 301 316 290 279 319 311 275 209 160 237 293 57 181 190 196 198 184 201 220 185 243 190 126 356 271 237 349 42 49 351 10 359 309 231 144 105 287 299 30 95 106 112 133 121 106 154 199 328 11 97 105 0 308 321 0 317 102 143 198 205 164 158 166 178 176 168 176
337 338 339 338 335 332 328 318 311 307 304 292 258 249 265 285 309 319 61 70 304 306 319 291 304 315 327 283 210 199 241 209 84 176 193 197 198 191 233 217 192 236 195 118 320 276 187 193 209 186 39 344 283 250 194 132 95 273 286 57 94 104 110 122 89 78 85 70 3 342 53 84 301 294 329 15 88 3 355 226 198 174 189 189 180 182 179 177
336 336 338 337 332 328 325 318 316 317 311 316 262 246 266 278 297 44 80 95 280 309 324 319 328 322 339 104 198 291 351 112 61 177 185 190 203 208 271 244 193 204 200 141 233 258 243 228 201 156 134 234 239 227 175 147 125 237 220 73 74 76 83 86 92 100 60 58 2 335 32 83 310 309 336 7 41 349 319 294 210 178 193 198 192 193 190 182
335 337 338 334 330 327 323 321 327 329 299 310 333 275 205 157 104 72 63 223 283 299 278 319 328 322 344 51 342 348 51 80 81 141 165 183 212 225 272 286 209 134 250 349 250 255 291 284 179 152 186 199 148 98 153 166 135 130 83 45 34 23 42 39 57 99 65 32 338 350 20 95 41 304 288 28 332 304 295 287 281 148 185 202 201 197 191 186
336 338 337 333 331 331 329 332 342 343 299 286 292 197 141 124 73 83 141 245 303 320 329 333 322 335 3 43 357 345 12 40 101 130 167 227 228 235 280 304 319 67 2 348 308 287 347 63 185 223 213 159 100 74 67 56 68 79 50 43 19 341 15 25 350 47 68 326 308 352 2 87 84 277 276 290 278 277 266 274 289 306 256 209 201 195 181 174
339 338 335 334 338 342 343 346 355 359 337 199 184 165 140 70 29 113 263 311 323 304 333 313 314 343 352 26 12 328 346 356 109 119 156 197 243 233 208 224 200 15 341 319 332 335 82 210 283 308 215 150 101 61 24 11 29 47 35 48 49 352 9 26 351 17 63 261 302 347 38 72 142 237 296 315 311 304 270 264 270 273 292 247 195 183 168 173
342 338 338 345 2 7 4 5 11 24 30 105 147 143 96 72 101 222 281 336 287 271 325 318 332 354 350 23 7 323 350 6 345 44 108 137 51 297 259 231 156 72 297 273 348 354 346 308 324 7 343 182 122 103 23 312 30 67 44 75 83 76 41 11 8 26 329 254 295 315 63 53 279 240 322 323 328 319 295 298 295 284 308 344 170 169 165 173
343 341 345 9 24 18 17 15 13 24 16 54 129 99 75 83 209 220 291 271 268 310 0 348 337 354 12 43 325 320 13 347 345 28 26 32 45 355 318 299 128 111 149 32 358 43 24 324 301 35 338 262 143 161 167 154 125 151 204 139 114 141 111 21 171 119 208 251 297 319 18 15 320 327 326 323 340 29 32 24 25 45 66 101 130 148 158 164
348 344 350 51 28 13 12 8 7 16 344 305 80 73 105 210 246 223 249 250 289 330 327 4 45 22 357 331 303 342 68 303 346 37 27 35 47 319 314 294 296 106 100 26 297 179 42 283 260 274 209 123 329 227 144 105 80 305 241 89 37 231 126 102 112 133 170 212 331 340 324 289 278 305 340 4 41 51 51 43 47 61 75 94 106 121 144 158
352 343 101 86 23 9 7 3 10 12 315 266 68 66 177 216 207 183 216 228 335 326 332 356 45 49 331 315 327 338 11 318 5 36 14 8 339 274 278 272 257 141 124 137 231 298 15 290 280 320 342 254 199 193 100 72 31 26 30 347 242 197 114 111 52 0 70 89 16 0 336 310 299 350 1 26 42 44 51 47 49 62 73 85 94 104 123 134
359 0 137 89 27 17 12 7 17 3 323 80 87 136 221 230 191 190 223 310 291 355 64 34 0 84 298 307 318 318 339 7 9 31 5 347 335 249 296 294 233 133 276 205 206 272 159 288 296 22 9 311 118 94 57 47 124 114 189 227 180 79 65 94 91 359 32 71 355 355 347 321 2 18 358 22 34 41 54 54 57 70 74 79 90 101 108 108
1 53 124 74 40 27 19 18 17 347 336 65 74 235 224 233 207 206 253 293 293 57 92 134 237 169 199 248 292 306 342 6 356 26 43 339 332 235 332 320 262 357 350 173 144 11 125 304 304 281 137 301 71 75 26 339 47 119 163 167 118 96 28 34 73 20 43 59 318 335 315 301 30 2 356 24 30 35 53 59 59 67 74 80 87 90 94 102
351 109 119 61 38 30 23 15 1 338 16 65 39 255 211 242 249 262 283 287 143 102 121 184 191 73 175 190 250 300 344 8 353 22 56 43 329 298 34 9 301 336 353 132 170 294 107 95 301 297 272 293 37 66 257 297 353 53 95 63 54 126 152 136 100 149 115 115 264 352 355 336 23 354 352 10 15 35 56 59 61 63 73 84 85 85 90 101
332 159 121 60 38 29 18 11 4 10 51 93 202 228 256 266 277 299 312 287 171 154 204 182 136 67 243 232 228 269 353 52 163 7 349 161 308 305 310 114 328 327 336 4 157 189 74 102 273 301 326 7 1 218 203 198 157 96 97 272 292 74 103 124 67 38 116 131 213 91 42 307 342 0 348 351 7 61 77 74 75 72 74 77 78 83 87 87
320 125 140 75 37 23 20 25 30 49 71 140 212 234 280 286 281 315 340 16 173 161 135 149 133 149 199 241 247 244 338 36 34 12 305 292 353 289 289 26 7 323 334 9 29 138 109 120 231 297 338 209 243 242 213 193 170 150 161 196 171 129 122 104 39 341 81 117 176 137 112 285 324 359 347 353 13 77 90 84 81 76 74 72 70 77 83 83
355 92 241 283 20 20 31 44 23 52 114 251 305 271 273 299 289 311 348 26 81 68 83 110 114 146 170 180 229 233 178 55 26 62 283 273 206 196 271 326 337 314 257 337 302 227 150 99 92 275 245 223 252 279 201 174 151 139 135 113 127 132 116 114 153 238 55 46 51 91 80 275 321 347 358 22 43 82 87 86 88 83 81 79 75 78 80 79
82 83 298 241 130 43 44 42 345 3 281 287 310 275 259 283 313 325 353 19 32 38 50 60 116 140 180 192 144 170 226 194 179 189 298 265 245 244 280 324 338 331 143 358 313 201 119 61 48 304 293 289 310 353 35 59 88 105 347 57 128 167 129 137 169 157 103 18 14 63 35 269 302 346 10 42 68 83 83 84 88 86 84 85 84 85 83 82
97 73 52 103 123 67 60 102 335 337 296 309 331 314 289 279 342 2 354 4 15 69 79 41 262 229 172 151 97 163 242 73 202 267 318 211 272 291 312 341 351 342 170 331 293 217 56 33 59 17 344 344 346 356 2 0 25 82 286 299 195 139 109 116 127 86 88 210 158 112 183 262 288 358 32 62 85 84 80 86 88 83 84 87 89 92 93 95
139 78 60 87 108 78 83 141 143 202 282 326 331 315 327 317 356 13 355 2 23 98 126 26 248 179 66 70 47 358 329 73 247 294 357 272 281 297 332 348 355 343 323 319 295 316 98 105 94 97 77 305 300 310 310 314 322 320 309 321 347 116 125 135 119 79 100 193 129 126 185 242 252 115 85 97 106 94 87 94 93 89 91 95 96 97 98 100
180 162 36 63 94 95 98 126 106 106 245 346 325 297 326 309 329 1 7 20 23 43 94 60 294 44 40 42 36 344 326 4 349 325 311 293 275 286 328 338 347 358 359 5 5 20 110 88 91 140 156 186 200 235 258 287 327 330 326 332 353 66 112 109 101 121 163 144 83 234 182 157 160 150 136 126 114 107 103 101 98 98 101 104 105 102 101 101
151 196 194 73 37 23 72 98 91 74 159 163 209 278 292 283 306 356 18 36 26 31 65 61 31 51 48 37 60 299 303 337 351 332 265 277 259 287 322 328 338 0 2 6 7 37 102 27 20 144 167 203 204 241 274 310 355 334 324 327 343 354 45 93 115 201 151 114 6 240 171 144 160 158 146 142 120 111 111 106 106 108 108 109 108 106 105 104
161 179 156 120 164 207 124 87 41 40 192 186 201 276 303 320 315 331 339 356 21 35 61 23 3 0 239 200 118 155 325 353 348 326 284 314 309 318 333 326 323 4 8 6 6 60 115 21 319 155 264 254 219 280 331 46 31 354 341 337 347 343 347 120 143 163 128 123 196 185 160 150 155 143 139 141 121 113 117 115 115 114 112 111 110 106 105 106
153 151 159 155 212 205 198 273 327 23 237 214 227 274 192 205 283 256 252 10 356 358 65 116 304 315 282 202 133 113 305 79 329 301 243 303 330 347 348 323 314 8 15 5 359 64 116 279 280 109 347 346 356 358 39 49 32 8 3 4 11 5 21 88 94 87 74 75 148 145 137 128 123 123 125 123 118 118 121 120 117 115 114 114 111 107 106 107
175 167 167 168 224 252 231 281 348 53 313 239 219 273 205 178 230 268 216 104 319 310 52 129 273 297 278 172 131 141 223 179 194 257 202 168 320 269 285 269 266 348 4 1 344 23 40 294 264 80 30 331 342 9 22 34 63 54 5 7 17 22 32 46 56 70 66 69 102 117 119 118 166 130 115 118 123 123 122 120 118 119 121 120 116 112 111 112
198 198 186 160 194 309 2 355 93 109 352 278 196 250 229 195 222 246 257 212 201 231 245 232 267 312 16 139 150 236 248 201 203 236 224 216 251 237 219 216 207 339 348 354 329 351 29 345 318 59 51 297 325 7 356 3 56 51 2 0 0 4 32 33 321 221 136 131 118 114 131 167 184 132 116 123 128 123 119 121 121 123 127 126 121 116 114 116
207 210 200 165 152 306 127 68 76 114 187 219 210 234 226 240 257 155 136 288 275 261 300 248 215 1 353 258 212 270 293 276 267 277 273 262 261 256 254 259 248 249 280 320 358 344 89 97 357 58 84 276 308 350 355 21 37 353 310 327 321 304 193 159 250 251 153 145 143 157 175 166 149 135 131 136 132 125 129 136 137 134 130 128 124 119 117 117
Height
1507 1506 1505 1504 1503 1502 1502 1501 1501 1500 1499 1498 1498 1498 1497 1497 1496 1496 1495 1494 1493 1492 1491 1491 1490 1489 1488 1486 1485 1484 1482 1481 1479 1479 1478 1477 1476 1475 1473 1472 1471 1471 1471 1471 1472 1473 1473 1474 1474 1474 1474 1474 1474 1475 1475 1476 1477 1478 1480 1484 1486 1485 1483 1479 1477 1476 1476 1474 1470 1468 1468 1469 1467 1464 1465 1464 1463 1462 1461 1459 1458 1458 1457 1457 1456 1456 1456 1456
1507 1506 1505 1504 1503 1502 1501 1501 1500 1499 1499 1498 1497 1497 1496 1496 1495 1495 1494 1493 1492 1491 1491 1490 1489 1488 1487 1486 1484 1483 1481 1480 1478 1478 1477 1476 1475 1475 1473 1472 1471 1471 1471 1471 1472 1473 1474 1474 1474 1474 1474 1474 1474 1475 1475 1476 1477 1478 1481 1484 1484 1482 1479 1476 1475 1474 1473 1472 1470 1468 1467 1468 1467 1465 1465 1464 1462 1462 1461 1458 1457 1457 1456 1456 1456 1456 1456 1456
1506 1505 1504 1503 1502 1502 1501 1500 1499 1499 1498 1497 1497 1496 1496 1495 1495 1494 1493 1492 1491 1491 1490 1489 1488 1487 1486 1485 1484 1482 1481 1479 1478 1477 1477 1476 1475 1474 1473 1472 1472 1471 1471 1472 1473 1474 1474 1474 1474 1474 1474 1474 1474 1475 1475 1475 1476 1477 1480 1483 1480 1478 1476 1474 1474 1473 1471 1471 1469 1467 1467 1467 1466 1465 1465 1465 1462 1461 1461 1458 1456 1456 1455 1455 1456 1456 1455 1456
1506 1505 1504 1503 1502 1501 1501 1500 1499 1498 1497 1496 1496 1495 1495 1494 1494 1493 1492 1491 1490 1490 1489 1488 1488 1487 1486 1484 1483 1482 1480 1478 1477 1477 1477 1476 1475 1474 1473 1473 1472 1472 1472 1473 1474 1474 1474 1474 1475 1474 1474 1474 1474 1475 1475 1475 1475 1476 1477 1479 1476 1475 1475 1473 1472 1471 1470 1470 1469 1467 1466 1465 1464 1465 1464 1464 1464 1460 1458 1458 1456 1455 1454 1455 1455 1456 1456 1458
1505 1504 1503 1502 1501 1501 1500 1499 1498 1497 1496 1496 1495 1494 1494 1493 1493 1492 1491 1490 1489 1489 1488 1488 1487 1486 1485 1484 1482 1481 1480 1479 1477 1477 1477 1476 1475 1475 1474 1474 1473 1473 1473 1473 1474 1474 1475 1475 1475 1474 1474 1474 1474 1475 1474 1473 1474 1475 1475 1474 1473 1473 1473 1471 1470 1469 1468 1468 1468 1467 1466 1464 1463 1463 1461 1462 1463 1459 1457 1457 1456 1455 1455 1455 1456 1456 1459 1462
1505 1504 1503 1502 1501 1500 1499 1498 1497 1497 1496 1495 1494 1494 1493 1492 1491 1491 1490 1489 1488 1488 1487 1487 1486 1485 1484 1483 1482 1480 1481 1480 1477 1477 1477 1476 1476 1475 1475 1475 1474 1474 1474 1474 1475 1475 1475 1475 1475 1475 1475 1474 1475 1474 1473 1472 1473 1474 1473 1471 1470 1471 1470 1469 1468 1467 1466 1466 1466 1466 1464 1462 1461 1460 1459 1460 1460 1457 1456 1456 1455 1454 1455 1457 1458 1459 1457 1459
1504 1503 1502 1501 1500 1499 1498 1498 1497 1496 1495 1494 1493 1493 1492 1491 1490 1489 1489 1488 1488 1487 1487 1486 1485 1484 1483 1482 1481 1479 1479 1479 1477 1476 1476 1476 1476 1475 1475 1475 1475 1475 1474 1475 1475 1476 1475 1475 1475 1475 1475 1475 1475 1474 1473 1472 1472 1473 1472 1470 1469 1469 1468 1467 1467 1466 1466 1466 1465 1464 1463 1461 1459 1459 1459 1459 1458 1457 1456 1455 1454 1454 1456 1457 1459 1459 1455 1452
1504 1503 1502 1501 1499 1499 1498 1497 1496 1495 1494 1493 1492 1492 1491 1490 1489 1488 1488 1487 1487 1486 1486 1485 1484 1483 1482 1481 1480 1479 1477 1477 1476 1476 1476 1476 1476 1475 1476 1476 1475 1475 1475 1475 1476 1476 1475 1475 1475 1475 1475 1475 1474 1474 1473 1473 1472 1472 1472 1470 1469 1469 1468 1467 1467 1467 1466 1465 1464 1464 1462 1459 1459 1460 1459 1458 1457 1456 1455 1455 1455 1455 1457 1458 1457 1457 1457 1453
1503 1502 1501 1500 1499 1498 1497 1496 1495 1494 1493 1492 1491 1491 1490 1489 1488 1487 1487 1486 1486 1485 1485 1484 1483 1482 1481 1480 1480 1478 1476 1475 1476 1475 1475 1475 1475 1475 1476 1476 1476 1476 1475 1475 1476 1476 1475 1475 1475 1474 1474 1474 1474 1473 1473 1474 1473 1471 1470 1470 1469 1468 1467 1467 1466 1466 1466 1465 1464 1463 1461 1459 1460 1460 1458 1456 1456 1456 1454 1455 1455 1455 1456 1459 1456 1455 1458 1455
1503 1502 1501 1500 1498 1497 1496 1495 1494 1493 1492 1491 1490 1490 1489 1488 1487 1486 1486 1485 1485 1484 1483 1483 1482 1481 1480 1479 1480 1479 1475 1475 1475 1475 1475 1475 1475 1475 1475 1476 1476 1476 1475 1475 1475 1476 1476 1475 1475 1474 1474 1474 1473 1473 1473 1474 1473 1470 1469 1469 1467 1467 1466 1465 1464 1464 1465 1464 1463 1463 1460 1460 1460 1459 1457 1455 1455 1455 1453 1453 1454 1454 1455 1457 1456 1453 1456 1453
1502 1501 1500 1499 1498 1496 1495 1494 1493 1492 1491 1490 1489 1489 1488 1487 1486 1485 1485 1485 1484 1483 1482 1481 1480 1480 1479 1478 1479 1478 1474 1474 1474 1474 1475 1475 1475 1475 1475 1476 1476 1476 1476 1475 1476 1476 1476 1476 1475 1475 1474 1473 1473 1473 1472 1471 1471 1470 1469 1468 1467 1467 1465 1463 1463 1462 1463 1462 1461 1461 1460 1459 1460 1458 1457 1455 1454 1454 1453 1452 1453 1454 1454 1455 1454 1452 1456 1454
1502 1501 1500 1498 1497 1495 1494 1493 1492 1491 1490 1489 1488 1487 1487 1486 1485 1484 1484 1483 1483 1481 1480 1480 1479 1478 1478 1477 1476 1475 1473 1474 1474 1474 1474 1474 1475 1475 1475 1475 1476 1476 1475 1475 1475 1476 1476 1475 1475 1475 1474 1473 1473 1473 1471 1471 1471 1470 1470 1470 1468 1466 1464 1462 1462 1461 1461 1461 1460 1460 1460 1461 1460 1457 1456 1455 1454 1453 1453 1452 1453 1453 1452 1454 1454 1453 1457 1458
1502 1500 1499 1498 1496 1494 1493 1492 1491 1490 1488 1488 1487 1486 1485 1485 1484 1483 1483 1482 1482 1480 1479 1478 1478 1477 1477 1475 1473 1473 1473 1473 1473 1473 1474 1474 1474 1474 1475 1475 1475 1476 1475 1475 1475 1475 1475 1475 1475 1475 1474 1473 1473 1472 1471 1471 1471 1470 1471 1472 1471 1469 1464 1462 1462 1461 1460 1460 1459 1460 1464 1465 1461 1457 1456 1455 1454 1453 1453 1453 1453 1453 1452 1455 1453 1450 1455 1458
1501 1500 1499 1497 1495 1494 1492 1491 1490 1488 1487 1486 1485 1485 1484 1484 1483 1482 1481 1481 1480 1479 1478 1478 1477 1477 1476 1473 1472 1472 1472 1472 1472 1472 1473 1473 1473 1474 1474 1474 1475 1475 1476 1475 1475 1475 1474 1474 1474 1473 1473 1473 1472 1472 1472 1472 1472 1472 1472 1473 1476 1475 1467 1462 1462 1462 1461 1461 1459 1461 1467 1466 1461 1458 1456 1455 1454 1452 1453 1453 1453 1452 1451 1453 1448 1447 1456 1456
1501 1499 1498 1496 1494 1493 1491 1490 1489 1487 1486 1485 1484 1484 1483 1483 1482 1481 1480 1480 1479 1478 1478 1477 1477 1476 1474 1471 1470 1471 1471 1471 1471 1471 1472 1472 1473 1473 1473 1474 1474 1475 1475 1475 1474 1474 1473 1473 1473 1473 1473 1472 1472 1473 1474 1474 1474 1475 1475 1476 1478 1478 1470 1463 1461 1461 1461 1461 1461 1463 1468 1467 1461 1459 1457 1455 1453 1452 1453 1454 1454 1451 1451 1450 1444 1448 1458 1454
1501 1499 1497 1496 1494 1492 1490 1489 1487 1486 1485 1484 1483 1483 1482 1482 1481 1481 1480 1479 1478 1478 1477 1476 1476 1476 1474 1471 1470 1470 1470 1470 1470 1470 1471 1471 1472 1473 1473 1473 1474 1474 1474 1474 1473 1473 1473 1473 1472 1473 1472 1472 1473 1474 1476 1477 1477 1478 1479 1478 1478 1478 1474 1467 1460 1460 1462 1462 1463 1465 1468 1468 1462 1459 1458 1455 1452 1452 1454 1454 1455 1452 1450 1449 1445 1452 1459 1455
1500 1498 1497 1495 1493 1491 1489 1488 1486 1485 1484 1483 1482 1482 1482 1481 1480 1480 1479 1478 1477 1477 1477 1476 1475 1475 1473 1470 1470 1469 1468 1469 1470 1469 1469 1470 1472 1473 1473 1473 1473 1474 1474 1474 1474 1473 1473 1473 1473 1473 1472 1474 1475 1475 1479 1482 1480 1480 1481 1480 1479 1478 1476 1471 1462 1459 1461 1463 1467 1469 1468 1467 1463 1460 1458 1454 1453 1453 1455 1456 1456 1453 1451 1452 1453 1459 1462 1459
1500 1498 1496 1494 1493 1491 1489 1487 1486 1484 1483 1482 1482 1482 1481 1481 1480 1479 1477 1477 1477 1477 1476 1475 1475 1474 1471 1469 1468 1467 1467 1469 1469 1468 1469 1469 1471 1472 1473 1473 1473 1474 1474 1474 1474 1473 1473 1473 1473 1474 1474 1476 1475 1477 1482 1483 1481 1481 1482 1482 1481 1479 1477 1473 1465 1461 1462 1465 1470 1471 1469 1467 1464 1461 1458 1454 1454 1455 1455 1457 1457 1457 1457 1458 1460 1464 1465 1463
1499 1497 1495 1494 1492 1490 1488 1487 1486 1484 1483 1482 1482 1481 1481 1480 1479 1477 1477 1476 1475 1475 1474 1472 1472 1472 1470 1467 1467 1467 1467 1468 1468 1467 1468 1468 1470 1472 1472 1472 1473 1474 1474 1475 1473 1472 1473 1473 1474 1477 1477 1476 1475 1476 1477 1476 1477 1479 1481 1483 1482 1481 1476 1471 1465 1461 1464 1467 1471 1472 1470 1469 1466 1462 1460 1456 1455 1456 1456 1458 1460 1462 1463 1463 1465 1468 1468 1467
1498 1497 1495 1493 1491 1490 1488 1487 1485 1484 1483 1482 1482 1481 1481 1480 1478 1476 1475 1474 1472 1472 1470 1470 1470 1468 1467 1466 1466 1467 1467 1467 1467 1466 1467 1468 1469 1471 1471 1472 1473 1474 1475 1475 1473 1472 1473 1474 1476 1477 1475 1474 1474 1474 1474 1474 1476 1478 1480 1481 1482 1482 1475 1468 1465 1462 1464 1468 1472 1473 1471 1470 1467 1464 1462 1458 1457 1457 1457 1460 1463 1466 1467 1467 1468 1469 1468 1468
1498 1496 1494 1493 1491 1489 1487 1486 1486 1485 1484 1483 1482 1482 1482 1481 1481 1480 1476 1471 1468 1469 1468 1467 1467 1466 1465 1465 1465 1466 1466 1466 1466 1466 1467 1468 1469 1471 1471 1471 1474 1477 1476 1475 1474 1473 1474 1474 1474 1473 1472 1471 1472 1473 1474 1474 1475 1477 1479 1481 1480 1479 1475 1470 1466 1464 1463 1467 1471 1473 1471 1470 1468 1466 1464 1461 1461 1461 1461 1462 1464 1466 1469 1469 1468 1467 1468 1469
1497 1496 1494 1492 1490 1489 1487 1486 1485 1485 1484 1484 1483 1483 1483 1483 1483 1482 1480 1474 1467 1466 1467 1465 1465 1464 1462 1463 1464 1465 1466 1466 1465 1466 1466 1467 1469 1470 1470 1471 1474 1477 1478 1477 1476 1476 1475 1472 1470 1470 1470 1470 1470 1472 1473 1474 1475 1476 1479 1481 1479 1477 1477 1473 1467 1464 1464 1465 1469 1472 1471 1471 1469 1467 1466 1463 1464 1464 1463 1464 1466 1467 1469 1470 1469 1467 1469 1470
1496 1494 1493 1492 1490 1488 1487 1486 1485 1484 1484 1484 1484 1484 1484 1484 1483 1482 1482 1479 1471 1465 1465 1465 1464 1462 1461 1462 1462 1463 1465 1464 1463 1464 1465 1466 1468 1469 1470 1471 1473 1476 1478 1478 1477 1477 1475 1469 1467 1468 1468 1469 1470 1471 1473 1474 1475 1476 1478 1479 1478 1476 1477 1475 1470 1467 1466 1465 1468 1470 1471 1472 1470 1468 1467 1466 1466 1467 1465 1465 1466 1467 1468 1469 1469 1468 1470 1472
1495 1493 1493 1491 1489 1487 1486 1485 1484 1484 1484 1484 1484 1484 1484 1484 1483 1482 1481 1480 1475 1467 1464 1464 1463 1461 1461 1460 1461 1461 1462 1462 1462 1462 1463 1465 1467 1469 1470 1470 1473 1475 1476 1475 1476 1476 1472 1465 1464 1466 1467 1468 1468 1469 1471 1472 1473 1474 1474 1475 1474 1472 1472 1472 1471 1470 1468 1467 1468 1469 1471 1474 1473 1472 1470 1468 1469 1469 1467 1466 1467 1467 1468 1469 1470 1471 1472 1475
1494 1493 1491 1490 1489 1487 1485 1484 1483 1483 1484 1484 1484 1484 1484 1483 1483 1483 1481 1482 1479 1469 1464 1464 1463 1462 1460 1460 1461 1460 1460 1461 1461 1461 1462 1463 1465 1468 1470 1470 1472 1474 1474 1474 1475 1474 1468 1463 1463 1465 1467 1467 1468 1468 1467 1468 1470 1469 1468 1469 1469 1469 1468 1469 1470 1469 1471 1472 1469 1468 1475 1479 1475 1473 1472 1470 1471 1471 1469 1468 1468 1468 1469 1470 1473 1474 1475 1477
1493 1492 1490 1489 1488 1486 1485 1483 1483 1484 1483 1483 1484 1483 1484 1483 1483 1482 1482 1487 1483 1469 1464 1465 1464 1462 1460 1460 1460 1460 1462 1461 1460 1461 1461 1462 1464 1466 1469 1470 1470 1472 1473 1473 1474 1471 1465 1463 1463 1465 1466 1467 1467 1467 1465 1466 1469 1468 1465 1464 1466 1466 1467 1468 1468 1468 1473 1476 1470 1467 1476 1481 1477 1474 1473 1472 1472 1472 1472 1470 1468 1469 1470 1471 1474 1475 1476 1478
1492 1491 1489 1488 1486 1485 1484 1483 1483 1483 1482 1483 1482 1483 1483 1482 1483 1482 1483 1492 1487 1471 1466 1466 1464 1463 1461 1460 1460 1461 1465 1463 1460 1461 1461 1463 1465 1466 1468 1470 1470 1470 1469 1471 1474 1469 1463 1464 1465 1465 1466 1466 1466 1465 1464 1464 1467 1467 1463 1462 1464 1464 1465 1466 1465 1467 1472 1473 1470 1469 1472 1478 1479 1475 1472 1473 1472 1472 1472 1471 1469 1469 1469 1471 1474 1475 1476 1478
1491 1490 1488 1487 1485 1484 1483 1482 1482 1481 1482 1482 1481 1482 1482 1481 1483 1481 1487 1499 1488 1469 1467 1465 1462 1462 1461 1460 1460 1460 1463 1461 1462 1464 1463 1464 1466 1466 1468 1468 1468 1468 1466 1471 1476 1468 1461 1464 1465 1464 1466 1466 1463 1462 1463 1464 1466 1467 1463 1462 1463 1463 1465 1465 1463 1467 1472 1474 1475 1474 1473 1477 1481 1477 1472 1473 1473 1471 1470 1469 1469 1470 1469 1471 1473 1473 1474 1476
1490 1488 1487 1486 1484 1483 1482 1481 1481 1481 1481 1481 1481 1481 1481 1482 1482 1482 1492 1499 1481 1467 1468 1465 1462 1462 1461 1461 1461 1460 1460 1460 1462 1465 1464 1465 1466 1466 1466 1466 1465 1466 1464 1468 1471 1465 1461 1462 1461 1462 1465 1463 1461 1461 1462 1463 1465 1465 1463 1463 1464 1465 1467 1466 1465 1469 1472 1477 1482 1479 1475 1479 1483 1480 1476 1476 1476 1474 1471 1469 1469 1470 1470 1471 1472 1472 1473 1475
1489 1487 1486 1484 1483 1482 1481 1480 1480 1480 1481 1480 1481 1481 1480 1482 1483 1489 1500 1495 1477 1470 1468 1465 1464 1463 1461 1462 1462 1461 1460 1461 1463 1464 1465 1466 1466 1465 1465 1464 1463 1465 1466 1466 1467 1463 1460 1459 1459 1461 1461 1460 1460 1461 1463 1462 1463 1463 1463 1464 1465 1466 1467 1469 1470 1469 1472 1481 1485 1480 1478 1480 1484 1483 1480 1479 1477 1476 1473 1470 1469 1470 1470 1471 1471 1472 1472 1473
1488 1486 1485 1483 1482 1481 1480 1480 1480 1480 1480 1480 1480 1480 1480 1482 1486 1497 1500 1486 1476 1473 1468 1467 1467 1465 1464 1466 1466 1463 1461 1462 1463 1465 1467 1467 1466 1467 1467 1466 1464 1466 1468 1467 1465 1463 1461 1461 1460 1458 1457 1458 1459 1462 1463 1462 1462 1464 1465 1466 1468 1469 1468 1470 1470 1469 1477 1487 1484 1478 1477 1479 1484 1485 1480 1477 1475 1473 1472 1470 1469 1469 1470 1470 1470 1471 1472 1473
1486 1485 1483 1482 1481 1480 1480 1480 1479 1480 1479 1479 1480 1479 1480 1486 1492 1497 1491 1479 1479 1478 1471 1471 1470 1467 1468 1468 1469 1467 1464 1464 1464 1464 1467 1468 1468 1468 1468 1469 1467 1470 1474 1471 1468 1464 1462 1461 1459 1457 1457 1457 1459 1464 1467 1465 1465 1466 1467 1469 1473 1476 1475 1476 1479 1480 1486 1487 1480 1476 1477 1478 1483 1482 1477 1475 1472 1470 1471 1469 1468 1468 1469 1469 1469 1470 1471 1473
1485 1484 1482 1481 1481 1480 1480 1479 1479 1480 1479 1479 1479 1478 1481 1491 1495 1493 1487 1482 1482 1477 1471 1472 1470 1470 1470 1469 1470 1469 1466 1467 1465 1464 1466 1467 1468 1468 1467 1467 1466 1470 1475 1474 1473 1469 1465 1463 1459 1458 1459 1457 1457 1464 1468 1468 1467 1468 1469 1470 1475 1481 1483 1486 1491 1492 1492 1487 1477 1473 1475 1479 1481 1478 1474 1472 1470 1469 1469 1468 1468 1467 1467 1468 1468 1470 1472 1473
1484 1483 1482 1481 1481 1480 1480 1480 1479 1479 1479 1478 1479 1479 1485 1493 1493 1488 1485 1483 1479 1474 1472 1474 1473 1472 1472 1472 1473 1470 1469 1469 1465 1465 1467 1467 1470 1470 1468 1467 1466 1468 1471 1473 1476 1476 1476 1473 1464 1459 1460 1459 1457 1460 1463 1464 1467 1469 1468 1468 1472 1477 1482 1487 1492 1494 1494 1489 1480 1474 1477 1483 1482 1477 1472 1470 1468 1468 1468 1467 1467 1466 1466 1467 1469 1471 1472 1473
1483 1482 1482 1481 1480 1480 1480 1480 1479 1479 1479 1478 1479 1483 1489 1492 1490 1487 1484 1480 1477 1475 1474 1474 1474 1476 1475 1474 1473 1470 1471 1471 1467 1467 1469 1470 1472 1472 1469 1467 1466 1467 1470 1474 1476 1476 1479 1474 1462 1458 1458 1458 1458 1458 1458 1461 1467 1469 1467 1468 1471 1471 1475 1484 1489 1488 1489 1488 1485 1481 1481 1480 1477 1474 1470 1468 1467 1467 1466 1466 1466 1466 1467 1468 1470 1471 1473 1474
1482 1481 1481 1481 1480 1480 1480 1480 1479 1479 1479 1478 1481 1486 1488 1486 1485 1485 1480 1476 1477 1476 1476 1476 1476 1479 1480 1477 1474 1472 1470 1470 1470 1469 1471 1472 1473 1471 1469 1466 1465 1465 1467 1472 1474 1474 1477 1471 1459 1457 1458 1456 1458 1458 1457 1460 1466 1469 1469 1469 1470 1467 1469 1479 1485 1485 1485 1488 1488 1487 1483 1478 1475 1475 1470 1468 1468 1467 1466 1467 1467 1468 1469 1470 1471 1473 1474 1474
1482 1481 1481 1480 1480 1480 1480 1479 1479 1479 1479 1479 1482 1486 1486 1481 1479 1479 1476 1475 1476 1475 1478 1482 1481 1481 1484 1481 1478 1475 1471 1470 1472 1472 1474 1475 1473 1470 1468 1466 1464 1464 1464 1466 1469 1470 1474 1471 1460 1458 1460 1458 1458 1458 1458 1458 1461 1467 1470 1467 1467 1468 1469 1474 1482 1486 1487 1490 1489 1487 1487 1484 1481 1481 1475 1471 1471 1470 1469 1470 1470 1470 1470 1471 1473 1473 1474 1475
1481 1481 1480 1480 1480 1480 1479 1479 1479 1479 1479 1480 1483 1485 1484 1480 1476 1475 1474 1473 1475 1475 1478 1483 1481 1480 1484 1484 1481 1477 1475 1474 1475 1476 1477 1477 1474 1469 1468 1466 1464 1463 1462 1462 1465 1466 1471 1473 1464 1460 1462 1460 1458 1460 1463 1460 1458 1462 1464 1463 1467 1473 1475 1476 1482 1485 1487 1494 1493 1486 1486 1486 1484 1483 1479 1475 1476 1474 1472 1472 1471 1472 1472 1472 1473 1474 1476 1477
1481 1480 1480 1480 1479 1479 1479 1478 1479 1479 1479 1482 1486 1484 1482 1479 1475 1473 1473 1472 1474 1476 1477 1480 1480 1481 1483 1483 1482 1479 1478 1478 1478 1479 1479 1479 1476 1469 1467 1468 1465 1462 1462 1462 1463 1465 1469 1475 1471 1462 1460 1460 1460 1464 1467 1464 1461 1461 1463 1464 1467 1471 1475 1477 1480 1481 1484 1495 1497 1488 1486 1486 1484 1483 1481 1478 1477 1475 1474 1474 1473 1473 1473 1473 1475 1476 1477 1478
1480 1480 1480 1480 1479 1479 1478 1478 1478 1479 1480 1484 1486 1483 1480 1478 1474 1472 1471 1471 1472 1474 1475 1477 1480 1481 1481 1480 1481 1480 1479 1479 1479 1480 1480 1479 1477 1470 1466 1467 1466 1463 1461 1461 1462 1464 1468 1474 1474 1466 1462 1464 1464 1464 1464 1462 1462 1463 1466 1468 1469 1471 1474 1475 1478 1480 1480 1487 1492 1491 1491 1488 1482 1481 1481 1479 1478 1476 1475 1475 1474 1474 1474 1475 1477 1478 1479 1479
1480 1479 1479 1479 1479 1479 1478 1478 1480 1481 1483 1485 1485 1482 1480 1477 1474 1471 1470 1470 1470 1471 1472 1475 1478 1479 1480 1480 1481 1480 1479 1479 1479 1479 1480 1478 1477 1474 1468 1466 1467 1465 1462 1461 1462 1464 1467 1472 1473 1470 1467 1466 1463 1458 1458 1457 1458 1460 1463 1464 1466 1470 1472 1475 1481 1483 1481 1482 1487 1489 1492 1488 1482 1480 1480 1479 1478 1476 1476 1475 1475 1476 1476 1477 1479 1480 1481 1481
1480 1480 1479 1479 1479 1478 1478 1479 1482 1484 1484 1483 1482 1481 1478 1476 1474 1472 1470 1469 1470 1470 1470 1473 1476 1478 1479 1479 1480 1480 1479 1479 1479 1480 1479 1477 1477 1474 1468 1465 1465 1465 1464 1463 1463 1462 1464 1469 1471 1470 1466 1462 1459 1456 1456 1456 1457 1458 1460 1463 1465 1467 1467 1471 1479 1481 1483 1486 1485 1486 1490 1487 1481 1480 1480 1479 1478 1477 1477 1477 1477 1477 1478 1479 1480 1481 1482 1483
1480 1480 1479 1478 1479 1478 1478 1481 1484 1485 1484 1482 1480 1479 1476 1475 1474 1472 1471 1470 1470 1471 1472 1474 1476 1476 1477 1478 1479 1480 1479 1478 1479 1479 1478 1478 1474 1470 1467 1466 1465 1464 1463 1464 1463 1461 1464 1470 1472 1468 1463 1458 1455 1456 1456 1456 1458 1459 1461 1463 1465 1465 1465 1467 1471 1474 1481 1487 1485 1485 1490 1487 1481 1480 1480 1479 1479 1478 1479 1479 1479 1479 1480 1480 1481 1483 1484 1485
1480 1480 1479 1478 1478 1478 1479 1484 1486 1486 1485 1482 1480 1478 1476 1475 1474 1473 1473 1473 1472 1473 1474 1475 1476 1476 1476 1477 1477 1478 1479 1479 1479 1478 1478 1478 1473 1467 1466 1466 1465 1464 1463 1463 1463 1461 1465 1473 1475 1474 1473 1469 1464 1464 1462 1459 1460 1461 1463 1463 1462 1464 1465 1466 1469 1471 1478 1487 1485 1483 1489 1488 1482 1481 1481 1480 1480 1480 1481 1481 1481 1482 1482 1482 1483 1484 1486 1487
1480 1480 1479 1479 1479 1479 1480 1483 1485 1486 1486 1485 1482 1480 1477 1476 1474 1474 1474 1474 1473 1474 1475 1476 1476 1475 1476 1477 1477 1478 1478 1479 1479 1478 1478 1478 1472 1467 1466 1465 1465 1464 1462 1462 1461 1460 1465 1473 1475 1477 1482 1483 1480 1478 1474 1469 1465 1464 1464 1464 1463 1464 1463 1464 1469 1470 1476 1489 1488 1480 1485 1488 1484 1482 1482 1481 1482 1483 1483 1484 1484 1484 1485 1485 1486 1487 1488 1489
1480 1480 1480 1479 1479 1480 1481 1482 1484 1485 1486 1487 1484 1481 1480 1478 1476 1474 1474 1474 1474 1474 1475 1476 1475 1475 1477 1477 1478 1479 1478 1478 1479 1478 1477 1477 1473 1468 1466 1465 1464 1464 1462 1461 1460 1460 1466 1473 1474 1475 1479 1480 1479 1477 1475 1473 1471 1468 1466 1464 1464 1465 1463 1463 1466 1467 1472 1484 1488 1483 1484 1486 1485 1484 1483 1483 1483 1484 1485 1485 1486 1487 1487 1488 1489 1489 1490 1491
1480 1480 1480 1480 1480 1480 1482 1483 1484 1484 1486 1487 1485 1482 1481 1480 1478 1476 1475 1475 1475 1475 1475 1476 1476 1477 1478 1478 1479 1480 1479 1479 1479 1478 1477 1477 1474 1470 1466 1465 1465 1464 1462 1461 1459 1461 1466 1472 1474 1474 1475 1477 1478 1476 1473 1472 1472 1472 1471 1467 1464 1464 1463 1462 1464 1467 1469 1474 1480 1484 1485 1484 1485 1484 1483 1484 1484 1484 1486 1487 1488 1489 1489 1490 1491 1491 1492 1493
1480 1480 1480 1480 1480 1481 1482 1483 1484 1484 1485 1486 1485 1483 1482 1481 1480 1479 1476 1475 1475 1475 1476 1478 1478 1478 1479 1478 1479 1481 1480 1480 1480 1478 1477 1477 1475 1472 1468 1465 1464 1463 1463 1462 1461 1462 1467 1471 1473 1473 1473 1474 1477 1475 1472 1470 1471 1473 1475 1471 1466 1465 1464 1462 1465 1471 1470 1466 1471 1480 1484 1483 1483 1483 1483 1483 1484 1485 1487 1487 1488 1490 1490 1491 1492 1493 1494 1494
1479 1480 1479 1479 1480 1481 1481 1482 1483 1484 1484 1485 1484 1483 1482 1481 1480 1479 1478 1477 1477 1476 1477 1479 1479 1478 1478 1478 1479 1480 1481 1482 1482 1480 1477 1477 1477 1475 1473 1469 1466 1464 1464 1464 1464 1465 1468 1471 1474 1473 1471 1471 1474 1474 1472 1471 1471 1473 1474 1473 1470 1469 1468 1467 1470 1473 1472 1470 1473 1479 1482 1482 1482 1482 1482 1483 1483 1485 1487 1488 1489 1490 1491 1492 1493 1494 1495 1496
1479 1479 1479 1479 1479 1480 1481 1481 1482 1483 1483 1484 1484 1482 1481 1481 1480 1478 1478 1478 1479 1478 1477 1478 1478 1478 1478 1478 1478 1479 1479 1479 1480 1478 1477 1477 1477 1476 1475 1473 1469 1467 1465 1466 1467 1467 1468 1472 1475 1473 1471 1471 1472 1472 1472 1472 1473 1473 1473 1473 1471 1471 1472 1472 1474 1474 1474 1477 1479 1479 1481 1483 1481 1481 1482 1483 1484 1486 1488 1489 1490 1491 1492 1493 1494 1495 1496 1497
1478 1478 1478 1478 1479 1480 1481 1481 1482 1483 1482 1482 1482 1481 1480 1480 1479 1478 1478 1477 1478 1478 1477 1478 1478 1477 1478 1478 1477 1476 1475 1475 1475 1474 1473 1474 1474 1473 1473 1472 1471 1470 1469 1469 1469 1467 1469 1473 1474 1473 1474 1475 1474 1474 1473 1472 1472 1472 1472 1474 1475 1474 1474 1474 1475 1474 1474 1477 1480 1480 1481 1483 1481 1480 1483 1484 1486 1488 1489 1491 1492 1493 1494 1494 1495 1496 1497 1498
1478 1478 1477 1477 1478 1480 1481 1481 1482 1483 1481 1481 1481 1479 1479 1479 1478 1478 1479 1478 1477 1477 1477 1477 1477 1477 1477 1477 1475 1474 1473 1473 1472 1471 1471 1471 1471 1470 1470 1470 1470 1471 1472 1471 1471 1471 1472 1473 1473 1476 1478 1477 1478 1477 1473 1472 1475 1476 1475 1478 1479 1477 1474 1473 1474 1473 1471 1473 1477 1478 1477 1478 1479 1480 1483 1485 1487 1489 1491 1492 1493 1494 1495 1496 1497 1498 1499 1500